[[{"header":{"parameterUnit":"m.s-1","parameterCategory":1,"la1":30.2991,"la2":30.254,"lo1":-89.0895,"lo2":-89.0444,"dy":0.0017,"dx":0.0017,"nx":28,"ny":28,"refTime":"2025-04-06T03:00:00:Z","depth":0,"parameterNumber":2,"parameterNumberName":"U-component_of_WINDS"},"data":[0,0,0,0,0,0,0,0,0,0,0,0,0,0,0,0,0,0,0,0,0,0,0,0,0,0,0,0,0,0,0,0,0,0,0,0,0,0,0,0,0,0,0,0,0,0,0,0,0,0,0,0,0,0,0,0,0,0,1.0488,1.0488,0,1.0469,1.0469,1.0468,1.0423,1.0422,1.0421,1.042,1.0401,1.0402,1.0402,0,0,0,0,0,0,0,0,0,0,0,0,0,1.0488,1.0488,1.0488,1.0488,1.0488,1.0469,1.0469,1.0468,1.0423,1.0422,1.0421,1.042,1.0401,1.0402,1.0402,0,0,0,0,0,0,0,0,0,0,0,0,0,1.048,1.0488,1.0488,1.0463,1.0461,1.0469,1.0468,1.0468,1.0424,1.0422,1.0421,1.0419,1.0401,1.0402,1.0402,1.0434,0,0,1.0404,1.0404,0,0,0,0,0,0,0,0,1.0481,1.048,1.0467,1.0465,1.0462,1.0447,1.0461,1.0457,1.0424,1.0438,1.042,1.0419,1.0418,1.0417,1.0416,1.0433,1.0432,1.0404,1.0404,1.0405,1.0405,0,0,0,0,0,0,0,1.0482,1.0481,1.0481,1.0467,1.0464,1.0453,1.045,1.046,1.0436,1.0436,1.0433,1.0431,1.0416,1.0416,1.0416,1.0432,1.0404,1.0404,1.0405,1.0405,1.0473,1.0474,0,0,0,0,0,0,1.0486,1.0482,1.0481,1.048,1.0468,1.0454,1.0451,1.0453,1.0436,1.0432,1.0432,1.0429,1.0416,1.0415,1.0415,1.045,1.0405,1.0405,1.0405,1.0472,1.0473,1.0475,0,0,0,0,0,0,1.0486,1.0486,1.0482,1.048,1.0479,1.0456,1.0458,1.0454,1.0453,1.0433,1.0428,1.0437,1.0414,1.0414,1.0429,1.0449,1.0405,1.0406,1.047,1.0472,1.0474,1.0521,0,0,0,0,0,0,1.0486,1.0486,1.0498,1.0481,1.0479,1.0497,1.046,1.0454,1.0454,1.045,1.0435,1.0432,1.0413,1.0429,1.043,1.0449,1.0406,1.0468,1.0471,1.0473,1.0518,1.0525,1.0531,0,0,0,0,0,1.0486,1.0512,1.0498,1.0499,1.0493,1.0498,1.0497,1.0475,1.0456,1.0467,1.0454,1.0432,1.0447,1.0431,1.0431,1.0451,1.0467,1.047,1.0473,1.0515,1.0523,1.0531,0,0,0,0,0,0,1.0532,1.0509,1.0494,1.0515,1.0509,1.049,1.0504,1.0485,1.0484,1.048,1.0453,1.045,1.0469,1.0462,1.0444,1.048,1.0453,1.0457,1.0484,1.0492,1.0499,1.05,1.0407,0,0,0,0,0,1.0545,1.0551,1.053,1.0551,1.0549,1.0527,1.0528,1.0512,1.0505,1.0502,1.049,1.0484,1.0487,1.0489,1.0491,1.0517,1.0513,1.0531,1.0537,1.0543,1.0546,1.0559,1.0566,1.0486,1.0486,1.0486,0,0,1.0571,1.0559,1.0565,1.056,1.0553,1.056,1.0525,1.0534,1.0538,1.0503,1.0516,1.0508,1.0499,1.052,1.0528,1.0514,1.0567,1.0547,1.0551,1.0551,1.0563,1.0571,1.0577,1.0488,1.0488,1.0487,0,0,1.0622,1.0614,1.063,1.0624,1.0614,1.0599,1.0603,1.0587,1.058,1.0593,1.0567,1.0572,1.0578,1.0573,1.0571,1.0621,1.06,1.0622,1.0656,1.0669,1.0675,1.068,1.0698,1.0704,1.0626,1.0626,1.0626,0,1.0656,1.0664,1.0641,1.0651,1.065,1.0618,1.0634,1.0629,1.0621,1.0621,1.0605,1.0612,1.0604,1.0623,1.0635,1.0635,1.0638,1.0623,1.0676,1.0681,1.0686,1.0702,1.0709,1.0629,1.0628,1.0628,1.0628,0,1.0706,1.0713,1.0727,1.0719,1.072,1.0733,1.0711,1.0715,1.0699,1.0686,1.07,1.0689,1.0688,1.0692,1.0676,1.0709,1.07,1.0681,1.0653,1.0697,1.0711,1.0717,1.0632,1.0631,1.0631,1.063,0,0,1.0785,1.0764,1.0769,1.0765,1.0752,1.0757,1.0769,1.0767,1.0771,1.0766,1.0775,1.0782,1.0763,1.0761,1.0745,1.0757,1.0796,1.0736,1.0735,1.0747,1.0831,1.0845,1.0852,1.0783,1.0784,1.0785,1.0831,0,1.0832,1.0851,1.083,1.0853,1.0859,1.0829,1.0839,1.0833,1.0822,1.0825,1.0813,1.0817,1.0793,1.0792,1.0802,1.0789,1.0813,1.0786,1.0791,1.0792,1.0794,1.086,1.0875,1.0919,1.0837,1.0838,1.0839,0,1.0889,1.0887,1.091,1.0896,1.0897,1.0907,1.0904,1.0908,1.09,1.0891,1.0889,1.087,1.0881,1.0854,1.0869,1.0851,1.0853,1.0847,1.0848,1.0847,1.0817,1.086,1.0933,1.0939,1.0848,1.0847,1.0846,0,1.0943,1.0946,1.096,1.0958,1.0941,1.0949,1.0942,1.0933,1.0933,1.0931,1.0931,1.0931,1.093,1.0931,1.0912,1.0894,1.0929,1.0901,1.0922,1.0922,1.093,1.0929,1.1003,1.0932,1.0932,1.0932,1.0932,0,1.0997,1.1013,1.0984,1.0993,1.101,1.0986,1.1003,1.0994,1.0986,1.0993,1.0968,1.0974,1.0949,1.0954,1.0939,1.0954,1.0954,1.0947,1.0943,1.0949,1.095,1.0949,1.0945,1.0934,1.0933,1.0933,1.0933,0,1.106,1.1041,1.1055,1.1038,1.1034,1.1047,1.1033,1.1041,1.1028,1.1037,1.1038,1.1018,1.1022,1.1004,1.1005,1.0995,1.1016,1.1008,1.1019,1.1016,1.1038,1.1036,1.1112,1.1121,1.1046,1.1046,1.1047,0,1.1095,1.1106,1.109,1.1093,1.1088,1.1092,1.1092,1.107,1.1072,1.1064,1.1072,1.1074,1.1074,1.1082,1.1068,1.1069,1.1059,1.1086,1.1059,1.1065,1.1059,1.1058,1.1059,1.1092,1.1092,1.1093,1.1094,0,1.1159,1.1149,1.115,1.1149,1.115,1.1148,1.1144,1.1147,1.1123,1.1127,1.113,1.113,1.1131,1.1133,1.1131,1.1125,1.1105,1.1103,1.1107,1.1113,1.1119,1.1115,1.1033,1.1101,1.11,1.11,1.1099,1.1099,1.1208,1.1216,1.1207,1.1209,1.1204,1.1201,1.1207,1.1196,1.1198,1.1196,1.1184,1.119,1.1182,1.1177,1.1173,1.1177,1.1165,1.1172,1.1173,1.1175,1.1179,1.1119,1.1177,1.1177,1.1177,1.1177,1.1176,0,1.127,1.1262,1.1265,1.126,1.1262,1.1244,1.1239,1.1242,1.1247,1.1242,1.1242,1.1247,1.1249,1.1235,1.1236,1.1242,1.1233,1.1243,1.1242,1.1241,1.119,1.1186,1.125,1.125,1.125,1.125,1.125,1.125,1.1302,1.1315,1.1305,1.1316,1.1308,1.1313,1.1312,1.1309,1.1305,1.131,1.1312,1.1303,1.1295,1.1294,1.1296,1.1292,1.1293,1.1305,1.1298,1.1251,1.1244,1.1237,1.1233,1.1306,1.1306,1.1348,1.1348,1.1349]},{"header":{"parameterUnit":"m.s-1","parameterCategory":1,"la1":30.2991,"la2":30.254,"lo1":-89.0895,"lo2":-89.0444,"dy":0.0017,"dx":0.0017,"nx":28,"ny":28,"refTime":"2025-04-06T03:00:00:Z","depth":0,"parameterNumber":3,"parameterNumberName":"V-component_of_WINDS"},"data":[0,0,0,0,0,0,0,0,0,0,0,0,0,0,0,0,0,0,0,0,0,0,0,0,0,0,0,0,0,0,0,0,0,0,0,0,0,0,0,0,0,0,0,0,0,0,0,0,0,0,0,0,0,0,0,0,0,0,7.8017,7.802,0,7.8244,7.8247,7.8249,7.8265,7.8263,7.826,7.8258,7.8491,7.85,7.8508,0,0,0,0,0,0,0,0,0,0,0,0,0,7.76,7.7608,7.8017,7.802,7.8023,7.8244,7.8247,7.825,7.8266,7.8263,7.826,7.8257,7.8489,7.8499,7.8509,0,0,0,0,0,0,0,0,0,0,0,0,0,7.78,7.761,7.8017,7.8057,7.8063,7.8243,7.8247,7.8251,7.8266,7.8263,7.8259,7.8255,7.8485,7.8498,7.851,7.8665,0,0,7.855,7.8555,0,0,0,0,0,0,0,0,7.7788,7.7815,7.8048,7.8055,7.8062,7.8223,7.8186,7.839,7.8267,7.8189,7.8258,7.8253,7.8405,7.8424,7.8475,7.8676,7.8686,7.8551,7.8559,7.8564,7.8568,0,0,0,0,0,0,0,7.7775,7.7805,7.8107,7.8052,7.806,7.8065,7.8089,7.8224,7.8316,7.8196,7.8198,7.8224,7.8408,7.8463,7.8481,7.869,7.855,7.8562,7.857,7.8575,7.9033,7.9037,0,0,0,0,0,0,7.7753,7.7794,7.81,7.8114,7.7913,7.8076,7.8103,7.8175,7.8314,7.8332,7.8227,7.8224,7.8443,7.8466,7.8489,7.8682,7.8564,7.8576,7.8583,7.9029,7.9034,7.9039,0,0,0,0,0,0,7.7744,7.778,7.8091,7.7954,7.7994,7.8087,7.8168,7.8181,7.8236,7.8338,7.8354,7.8266,7.8441,7.8471,7.8622,7.869,7.8582,7.8593,7.9023,7.903,7.9037,7.9067,0,0,0,0,0,0,7.7732,7.7776,7.7835,7.7956,7.8001,7.8219,7.8172,7.8188,7.8258,7.8256,7.8379,7.8396,7.844,7.8603,7.8635,7.8706,7.8603,7.9018,7.9026,7.9034,7.9061,7.9074,7.9086,0,0,0,0,0,7.7717,7.7835,7.7838,7.7875,7.8077,7.8223,7.8249,7.8297,7.8263,7.8324,7.839,7.8392,7.8677,7.8618,7.8654,7.873,7.9014,7.9024,7.9034,7.9055,7.9072,7.9086,0,0,0,0,0,0,7.772,7.7851,7.7857,7.8017,7.8109,7.8225,7.8303,7.8313,7.8417,7.8411,7.8467,7.8494,7.8644,7.8702,7.8634,7.8889,7.8842,7.886,7.8846,7.8863,7.8875,7.8858,7.8614,0,0,0,0,0,7.7739,7.7846,7.7955,7.8086,7.8132,7.821,7.8275,7.8304,7.8402,7.8441,7.8518,7.8613,7.8724,7.8796,7.8904,7.9069,7.9098,7.914,7.9152,7.9162,7.9177,7.9271,7.9292,7.9072,7.9072,7.9072,0,0,7.778,7.7865,7.7929,7.8089,7.8163,7.8274,7.8242,7.836,7.8443,7.8459,7.8607,7.8667,7.8777,7.8936,7.901,7.8989,7.9244,7.9175,7.9182,7.9192,7.9284,7.9305,7.9323,7.9079,7.9078,7.9076,0,0,7.7911,7.7986,7.8104,7.818,7.8294,7.8345,7.8374,7.849,7.853,7.868,7.8695,7.8795,7.8985,7.9064,7.9129,7.9293,7.9299,7.9327,7.9393,7.9484,7.9502,7.9517,7.9578,7.9599,7.9341,7.9341,7.9341,0,7.7948,7.8115,7.8164,7.8282,7.8353,7.8373,7.8495,7.8566,7.8709,7.8758,7.8733,7.8974,7.9049,7.9229,7.9269,7.932,7.9356,7.9313,7.9495,7.9511,7.9527,7.9585,7.9608,7.9344,7.9344,7.9343,7.9343,0,7.8155,7.8271,7.8353,7.8491,7.8571,7.869,7.8759,7.8835,7.8858,7.8913,7.9066,7.9157,7.9286,7.933,7.9353,7.9514,7.9498,7.9483,7.9437,7.9549,7.9606,7.9628,7.9348,7.9347,7.9346,7.9345,0,0,7.8294,7.846,7.8489,7.8553,7.8681,7.8772,7.8893,7.9019,7.9084,7.9182,7.9287,7.9449,7.9437,7.951,7.9543,7.9623,7.975,7.9599,7.9602,7.9625,7.9936,7.9947,7.9972,7.9755,7.976,7.9763,7.9927,0,7.8441,7.8656,7.8705,7.8891,7.9,7.9022,7.9128,7.9219,7.9274,7.9375,7.9436,7.955,7.9525,7.957,7.965,7.9718,7.9814,7.9706,7.9854,7.9859,7.9827,8.0001,8.0013,8.0163,7.9949,7.9953,7.9956,0,7.864,7.8745,7.8941,7.9058,7.9105,7.92,7.932,7.9416,7.9521,7.9555,7.9639,7.9664,7.9793,7.974,7.992,7.9846,7.9909,7.9952,7.9959,7.9976,7.9914,8.0023,8.0212,8.0235,7.999,7.9987,7.9985,0,7.8724,7.8913,7.9057,7.9111,7.9249,7.9316,7.9377,7.9477,7.9551,7.9656,7.9705,7.9824,7.989,7.9982,8.004,7.9996,8.0216,8.0167,8.025,8.0249,8.0295,8.0292,8.0498,8.0334,8.0334,8.0334,8.0333,0,7.8884,7.9004,7.9096,7.9184,7.932,7.9376,7.951,7.9571,7.9661,7.9763,7.9789,7.9884,7.9954,8.0059,8.0105,8.0248,8.0277,8.031,8.0321,8.0308,8.0304,8.0351,8.0343,8.034,8.0338,8.0337,8.0336,0,7.9,7.9066,7.9224,7.9343,7.9376,7.9471,7.9574,7.9662,7.9718,7.9846,7.988,7.9968,8.0094,8.016,8.0317,8.0348,8.0509,8.0514,8.0474,8.0479,8.0559,8.0551,8.0803,8.084,8.065,8.0652,8.0653,0,7.9097,7.9191,7.932,7.939,7.9453,7.9565,7.964,7.97,7.9778,7.9905,7.9978,8.0105,8.021,8.041,8.0489,8.061,8.0618,8.0698,8.0636,8.0622,8.0622,8.0616,8.0627,8.0709,8.0711,8.0712,8.0714,0,7.9265,7.9294,7.9401,7.9522,7.9611,7.9708,7.9804,7.986,7.9936,8.0023,8.0151,8.0233,8.0394,8.0521,8.0648,8.0712,8.0727,8.0733,8.0759,8.0747,8.0721,8.0738,8.0505,8.0727,8.0725,8.0724,8.0724,8.0723,7.9376,7.9461,7.9566,7.9686,7.9765,7.9855,7.9944,8.0012,8.012,8.0256,8.0285,8.0422,8.0527,8.0699,8.0768,8.0877,8.0861,8.0897,8.0907,8.0916,8.092,8.0703,8.09,8.09,8.0899,8.0899,8.0899,0,7.9547,7.9616,7.9725,7.986,7.9955,7.996,8.0067,8.0147,8.0267,8.0363,8.0466,8.0616,8.074,8.0829,8.0956,8.1026,8.1036,8.1058,8.1054,8.1069,8.0926,8.0892,8.1048,8.1048,8.1048,8.1047,8.1047,8.1047,7.9646,7.9791,7.9833,8.0018,8.0087,8.0221,8.0282,8.0366,8.0444,8.061,8.0713,8.077,8.0866,8.1,8.1114,8.1137,8.1184,8.1205,8.1229,8.1094,8.1078,8.1063,8.1032,8.1214,8.1214,8.1363,8.1364,8.1365]}]]